DO5RS-5 Weather Reports


time (UTC)temp
C
wind
direction
speed
KPH
gust
KPH
rain 1hr
cm
rain 24hr
cm
rain mn
cm
humidity
%
barometer
mb
20260507024905 12 0.0 0.0 0.00 0.00 0.00 79 1014.2
20260507023906 12 0.0 0.0 0.00 0.00 0.00 80 1014.1
20260507022910 12 0.0 0.0 0.00 0.00 0.00 80 1014.1
20260507020910 12 0.0 0.0 0.00 0.00 0.00 80 1014.0
20260507014904 12 0.0 0.0 0.00 0.00 0.00 80 1013.8
20260507013904 12 0.0 0.0 0.00 0.00 0.00 81 1013.7
20260507012904 12 0.0 0.0 0.00 0.00 0.00 81 1013.6
20260507011905 12 0.0 0.0 0.00 0.00 0.00 81 1013.6
20260507010909 12 0.0 0.0 0.00 0.00 0.00 81 1013.5
20260507003906 12 0.0 0.0 0.00 0.00 0.00 80 1013.5
20260507002904 12 0.0 0.0 0.00 0.00 0.00 80 1013.4
20260507001904 12 0.0 0.0 0.00 0.00 0.00 80 1013.4
20260507000904 12 0.0 0.0 0.00 0.00 0.00 80 1013.4
20260506235905 12 0.0 0.0 0.00 0.00 0.00 79 1013.3
20260506234909 12 0.0 0.0 0.00 0.00 0.00 78 1013.3
20260506231907 12 0.0 0.0 0.00 0.00 0.00 77 1013.0
20260506230905 12 0.0 0.0 0.00 0.00 0.00 77 1013.0
20260506225904 12 0.0 0.0 0.00 0.00 0.00 77 1013.0
20260506224904 13 0.0 0.0 0.00 0.00 0.00 77 1013.0
20260506223910 13 0.0 0.0 0.00 0.00 0.00 77 1012.9
20260506221905 13 0.0 0.0 0.00 0.00 0.00 77 1012.7
20260506220904 13 0.0 0.0 0.00 0.00 0.00 77 1012.7
20260506215904 13 0.0 0.0 0.00 0.00 0.00 77 1012.6
20260506214905 13 0.0 0.0 0.00 0.00 0.00 77 1012.6
20260506213911 13 0.0 0.0 0.00 0.00 0.00 77 1012.6
20260506211903 13 0.0 0.0 0.00 0.00 0.00 77 1012.4
20260506210903 13 0.0 0.0 0.00 0.00 0.00 77 1012.4
20260506205910 13 0.0 0.0 0.00 0.00 0.00 77 1014.1
20260506204906 13 0.0 0.0 0.00 0.00 0.00 77 1012.1
20260506203905 13 0.0 0.0 0.00 0.00 0.00 77 1012.0
20260506202904 13 0.0 0.0 0.00 0.00 0.00 79 1012.0
20260506201905 13 0.0 0.0 0.00 0.00 0.00 79 1011.9
20260506200909 13 0.0 0.0 0.00 0.00 0.00 79 1011.8
20260506195905 13 0.0 0.0 0.00 0.00 0.00 78 1011.6
20260506194905 14 0.0 0.0 0.00 0.00 0.00 78 1011.4
20260506193909 14 0.0 0.0 0.00 0.00 0.00 79 1011.3
20260506191904 14 0.0 0.0 0.00 0.00 0.00 79 1010.9
20260506190906 14 0.0 0.0 0.00 0.00 0.00 79 1010.9
20260506185905 14 0.0 0.0 0.00 0.00 0.00 79 1010.9
20260506184909 14 0.0 0.0 0.00 0.00 0.00 80 1010.5
20260506182908 15 0.0 0.0 0.00 0.00 0.00 80 1010.5
20260506180905 15 0.0 0.0 0.00 0.00 0.00 81 1010.2
20260506175905 15 0.0 0.0 0.00 0.00 0.00 80 1010.1
20260506174905 15 0.0 0.0 0.00 0.00 0.00 80 1009.9
20260506173906 15 0.0 0.0 0.00 0.00 0.00 81 1009.8
20260506172905 15 0.0 0.0 0.00 0.00 0.00 81 1009.8
20260506171909 15 0.0 0.0 0.00 0.00 0.00 81 1009.5
20260506165905 15 0.0 0.0 0.00 0.00 0.00 80 1009.5
20260506164906 15 0.0 0.0 0.00 0.00 0.00 81 1009.3
20260506163905 15 0.0 0.0 0.00 0.00 0.00 82 1009.2
20260506162909 15 0.0 0.0 0.00 0.00 0.00 83 1009.1
20260506160905 15 0.0 0.0 0.00 0.00 0.00 85 1009.0
20260506155905 15 0.0 0.0 0.00 0.00 0.00 85 1008.4
20260506154905 16 0.0 0.0 0.00 0.00 0.00 85 1008.9
20260506153904 16 0.0 0.0 0.00 0.00 0.00 85 1008.9
20260506152905 16 0.0 0.0 0.00 0.00 0.00 85 1009.0
20260506151904 16 0.0 0.0 0.00 0.00 0.00 86 1008.9
20260506150905 16 0.0 0.0 0.00 0.00 0.00 88 1008.8
20260506145905 15 0.0 0.0 0.00 0.00 0.00 89 1008.7
20260506144910 16 0.0 0.0 0.00 0.00 0.00 87 1008.6
20260506142904 16 0.0 0.0 0.00 0.00 0.00 86 1008.6
20260506141904 16 0.0 0.0 0.00 0.00 0.00 85 1008.6
20260506140905 16 0.0 0.0 0.00 0.00 0.00 83 1008.6
20260506135904 16 0.0 0.0 0.00 0.00 0.00 78 1008.6
20260506134906 16 0.0 0.0 0.00 0.00 0.00 74 1008.6
20260506133906 16 0.0 0.0 0.00 0.00 0.00 74 1008.4
20260506132905 17 0.0 0.0 0.00 0.00 0.00 74 1008.3
20260506131905 17 0.0 0.0 0.00 0.00 0.00 75 1008.4
20260506130905 16 0.0 0.0 0.00 0.00 0.00 75 1008.5
20260506125906 16 0.0 0.0 0.00 0.00 0.00 75 1008.5
20260506124906 17 0.0 0.0 0.00 0.00 0.00 72 1008.3
20260506123905 17 0.0 0.0 0.00 0.00 0.00 68 1008.2
20260506122904 18 0.0 0.0 0.00 0.00 0.00 64 1008.1
20260506121904 18 0.0 0.0 0.00 0.00 0.00 66 1008.2
20260506120904 17 0.0 0.0 0.00 0.00 0.00 71 1008.3
20260506115905 16 0.0 0.0 0.00 0.00 0.00 76 1008.4
20260506114904 16 0.0 0.0 0.00 0.00 0.00 78 1008.5
20260506113905 15 0.0 0.0 0.00 0.00 0.00 78 1008.6
20260506112904 16 0.0 0.0 0.00 0.00 0.00 79 1008.6
20260506111905 15 0.0 0.0 0.00 0.00 0.00 79 1008.0
20260506110904 15 0.0 0.0 0.00 0.00 0.00 80 1008.5
20260506105904 16 0.0 0.0 0.00 0.00 0.00 79 1008.5
20260506104905 16 0.0 0.0 0.00 0.00 0.00 78 1008.6
20260506103905 16 0.0 0.0 0.00 0.00 0.00 78 1008.5
20260506102909 15 0.0 0.0 0.00 0.00 0.00 78 1008.3
20260506100906 15 0.0 0.0 0.00 0.00 0.00 82 1008.6
20260506095905 16 0.0 0.0 0.00 0.00 0.00 80 1008.6
20260506094909 16 0.0 0.0 0.00 0.00 0.00 79 1008.4
20260506092907 16 0.0 0.0 0.00 0.00 0.00 80 1008.3
20260506091905 16 0.0 0.0 0.00 0.00 0.00 83 1008.5
20260506090904 16 0.0 0.0 0.00 0.00 0.00 83 1008.5
20260506085904 15 0.0 0.0 0.00 0.00 0.00 84 1008.4
20260506084904 15 0.0 0.0 0.00 0.00 0.00 85 1008.0
20260506083904 15 0.0 0.0 0.00 0.00 0.00 85 1008.5
20260506082903 15 0.0 0.0 0.00 0.00 0.00 84 1008.4
20260506081908 15 0.0 0.0 0.00 0.00 0.00 88 1008.3
20260506071905 14 0.0 0.0 0.00 0.00 0.00 95 1008.2
20260506070904 14 0.0 0.0 0.00 0.00 0.00 96 1008.2
20260506043904 13 0.0 0.0 0.00 0.00 0.00 97 1008.3
20260506042909 14 0.0 0.0 0.00 0.00 0.00 96 1008.2
20260506040905 14 0.0 0.0 0.00 0.00 0.00 96 1008.3
20260506035904 14 0.0 0.0 0.00 0.00 0.00 95 1008.3
20260506034904 14 0.0 0.0 0.00 0.00 0.00 94 1008.1
20260506033903 14 0.0 0.0 0.00 0.00 0.00 95 1008.2
20260506032904 14 0.0 0.0 0.00 0.00 0.00 95 1008.3
20260506031909 14 0.0 0.0 0.00 0.00 0.00 95 1008.2
20260506025907 14 0.0 0.0 0.00 0.00 0.00 96 1008.3